Time,TemperatureF,DewpointF,PressureIn,WindDirection,WindDirectionDegrees,WindSpeedMPH,WindSpeedGustMPH,Humidity,HourlyPrecipIn,Conditions,Clouds,dailyrainin,SoftwareType,DateUTC
2013-03-16 00:00:00,42.4,39.4,29.81,SSE,148,8.0,9.0,89,0.00,,,0.04,Wunderground v.1.15,2013-03-16 04:00:00,
2013-03-16 00:02:00,42.4,39.4,29.81,SSE,150,7.0,9.0,89,0.00,,,0.00,Wunderground v.1.15,2013-03-16 04:02:00,
2013-03-16 00:03:00,42.5,39.2,29.81,SSW,195,7.0,9.0,88,0.00,,,0.00,Wunderground v.1.15,2013-03-16 04:03:00,
2013-03-16 00:05:00,42.5,39.2,29.80,SSW,203,6.0,9.0,88,0.00,,,0.00,Wunderground v.1.15,2013-03-16 04:05:00,
2013-03-16 00:10:00,42.6,39.3,29.79,SSE,150,6.0,6.0,88,0.00,,,0.00,Wunderground v.1.15,2013-03-16 04:10:00,
2013-03-16 00:15:00,42.7,39.1,29.78,SE,143,6.0,7.0,87,0.00,,,0.00,Wunderground v.1.15,2013-03-16 04:15:00,
2013-03-16 00:21:00,42.8,39.2,29.78,SE,131,5.0,7.0,87,0.00,,,0.00,Wunderground v.1.15,2013-03-16 04:21:00,
2013-03-16 00:27:00,42.9,39.3,29.77,South,183,5.0,7.0,87,0.00,,,0.00,Wunderground v.1.15,2013-03-16 04:27:00,
2013-03-16 00:32:00,42.9,39.0,29.77,SE,145,4.0,13.0,86,0.00,,,0.00,Wunderground v.1.15,2013-03-16 04:32:00,
2013-03-16 00:38:00,42.9,39.3,29.76,ESE,118,5.0,13.0,87,0.00,,,0.00,Wunderground v.1.15,2013-03-16 04:38:00,
2013-03-16 00:44:00,42.8,38.9,29.75,SE,141,6.0,13.0,86,0.00,,,0.00,Wunderground v.1.15,2013-03-16 04:44:00,
2013-03-16 00:50:00,43.0,39.1,29.75,SE,136,4.0,13.0,86,0.00,,,0.00,Wunderground v.1.15,2013-03-16 04:50:00,
2013-03-16 00:55:00,43.1,39.2,29.74,ESE,110,4.0,13.0,86,0.00,,,0.00,Wunderground v.1.15,2013-03-16 04:55:00,
2013-03-16 01:00:00,42.9,39.0,29.74,East,87,5.0,5.0,86,0.00,,,0.00,Wunderground v.1.15,2013-03-16 05:00:00,
2013-03-16 01:06:00,43.0,39.1,29.74,ENE,57,3.0,5.0,86,0.00,,,0.00,Wunderground v.1.15,2013-03-16 05:06:00,
2013-03-16 01:11:00,43.0,39.1,29.74,East,94,3.0,4.0,86,0.00,,,0.00,Wunderground v.1.15,2013-03-16 05:11:00,
2013-03-16 01:16:00,43.0,39.1,29.74,NNE,30,2.0,4.0,86,0.00,,,0.00,Wunderground v.1.15,2013-03-16 05:16:00,
2013-03-16 01:22:00,43.1,39.2,29.74,ENE,67,2.0,2.0,86,0.00,,,0.00,Wunderground v.1.15,2013-03-16 05:22:00,
2013-03-16 01:27:00,43.3,39.1,29.74,SE,129,2.0,4.0,85,0.00,,,0.00,Wunderground v.1.15,2013-03-16 05:27:00,
2013-03-16 01:33:00,43.2,39.0,29.73,NNE,30,2.0,10.0,85,0.00,,,0.00,Wunderground v.1.15,2013-03-16 05:33:00,
2013-03-16 01:38:00,42.5,38.9,29.73,NNW,345,3.0,10.0,87,0.00,,,0.00,Wunderground v.1.15,2013-03-16 05:38:00,
2013-03-16 01:44:00,42.4,39.1,29.73,NW,317,4.0,10.0,88,0.00,,,0.00,Wunderground v.1.15,2013-03-16 05:44:00,
2013-03-16 01:50:00,42.4,39.1,29.72,SE,131,2.0,10.0,88,0.00,,,0.00,Wunderground v.1.15,2013-03-16 05:50:00,
2013-03-16 01:55:00,42.4,39.1,29.73,East,80,1.0,10.0,88,0.00,,,0.00,Wunderground v.1.15,2013-03-16 05:55:00,
2013-03-16 02:00:00,42.6,39.0,29.72,ENE,57,1.0,1.0,87,0.00,,,0.00,Wunderground v.1.15,2013-03-16 06:00:00,
2013-03-16 02:06:00,42.5,38.9,29.71,ESE,120,2.0,3.0,87,0.00,,,0.00,Wunderground v.1.15,2013-03-16 06:06:00,
2013-03-16 02:12:00,42.2,38.9,29.71,SE,125,2.0,2.0,88,0.00,,,0.00,Wunderground v.1.15,2013-03-16 06:12:00,
2013-03-16 02:18:00,41.9,38.6,29.71,SE,129,1.0,2.0,88,0.00,,,0.00,Wunderground v.1.15,2013-03-16 06:18:00,
2013-03-16 02:24:00,41.7,38.4,29.70,ESE,120,1.0,2.0,88,0.00,,,0.00,Wunderground v.1.15,2013-03-16 06:24:00,
2013-03-16 02:30:00,41.5,38.5,29.70,NE,44,2.0,3.0,89,0.00,,,0.00,Wunderground v.1.15,2013-03-16 06:30:00,
2013-03-16 02:36:00,41.5,38.2,29.71,North,6,3.0,6.0,88,0.00,,,0.00,Wunderground v.1.15,2013-03-16 06:36:00,
2013-03-16 02:42:00,41.3,38.6,29.71,NNE,25,4.0,6.0,90,0.00,,,0.00,Wunderground v.1.15,2013-03-16 06:42:00,
2013-03-16 02:47:00,41.1,38.4,29.72,NNE,18,4.0,6.0,90,0.00,,,0.00,Wunderground v.1.15,2013-03-16 06:47:00,
2013-03-16 02:53:00,41.1,38.4,29.72,North,11,4.0,6.0,90,0.00,,,0.00,Wunderground v.1.15,2013-03-16 06:53:00,
2013-03-16 02:58:00,41.2,38.5,29.71,NE,49,4.0,6.0,90,0.00,,,0.00,Wunderground v.1.15,2013-03-16 06:58:00,
2013-03-16 03:04:00,41.0,38.3,29.70,NE,53,3.0,6.0,90,0.00,,,0.00,Wunderground v.1.15,2013-03-16 07:04:00,
2013-03-16 03:10:00,40.8,38.4,29.70,North,350,4.0,4.0,91,0.00,,,0.00,Wunderground v.1.15,2013-03-16 07:10:00,
2013-03-16 03:15:00,40.7,38.3,29.69,NE,37,4.0,6.0,91,0.00,,,0.00,Wunderground v.1.15,2013-03-16 07:15:00,
2013-03-16 03:22:00,40.6,38.2,29.70,NE,44,4.0,5.0,91,0.00,,,0.00,Wunderground v.1.15,2013-03-16 07:22:00,
2013-03-16 03:28:00,40.4,38.0,29.70,NNE,23,4.0,5.0,91,0.00,,,0.00,Wunderground v.1.15,2013-03-16 07:28:00,
2013-03-16 03:34:00,40.2,38.1,29.70,NNW,333,5.0,7.0,92,0.00,,,0.00,Wunderground v.1.15,2013-03-16 07:34:00,
2013-03-16 03:40:00,40.2,38.1,29.70,NE,37,5.0,5.0,92,0.00,,,0.00,Wunderground v.1.15,2013-03-16 07:40:00,
2013-03-16 03:45:00,40.2,38.1,29.70,NE,42,4.0,5.0,92,0.00,,,0.00,Wunderground v.1.15,2013-03-16 07:45:00,
2013-03-16 03:52:00,40.1,38.0,29.69,NNE,19,3.0,4.0,92,0.00,,,0.00,Wunderground v.1.15,2013-03-16 07:52:00,
2013-03-16 03:57:00,40.1,38.2,29.69,North,8,4.0,7.0,93,0.00,,,0.00,Wunderground v.1.15,2013-03-16 07:57:00,
2013-03-16 04:02:00,40.1,38.2,29.69,ENE,77,5.0,5.0,93,0.00,,,0.00,Wunderground v.1.15,2013-03-16 08:02:00,
2013-03-16 04:08:00,40.0,38.1,29.68,NE,46,6.0,6.0,93,0.00,,,0.00,Wunderground v.1.15,2013-03-16 08:08:00,
2013-03-16 04:13:00,40.0,38.1,29.68,NE,49,5.0,6.0,93,0.00,,,0.00,Wunderground v.1.15,2013-03-16 08:13:00,
2013-03-16 04:19:00,40.1,38.2,29.67,ENE,65,5.0,9.0,93,0.00,,,0.00,Wunderground v.1.15,2013-03-16 08:19:00,
2013-03-16 04:25:00,40.1,38.2,29.68,NE,46,6.0,6.0,93,0.00,,,0.00,Wunderground v.1.15,2013-03-16 08:25:00,
2013-03-16 04:31:00,40.1,38.2,29.68,NE,47,5.0,8.0,93,0.00,,,0.00,Wunderground v.1.15,2013-03-16 08:31:00,
2013-03-16 04:37:00,40.1,38.2,29.69,NE,49,3.0,8.0,93,0.00,,,0.00,Wunderground v.1.15,2013-03-16 08:37:00,
2013-03-16 04:42:00,40.1,38.2,29.68,NE,52,3.0,8.0,93,0.00,,,0.00,Wunderground v.1.15,2013-03-16 08:42:00,
2013-03-16 04:48:00,40.0,38.1,29.67,NE,53,3.0,8.0,93,0.00,,,0.00,Wunderground v.1.15,2013-03-16 08:48:00,
2013-03-16 04:54:00,40.0,38.1,29.67,NE,41,4.0,8.0,93,0.00,,,0.00,Wunderground v.1.15,2013-03-16 08:54:00,
2013-03-16 05:00:00,39.9,38.0,29.68,NE,49,3.0,3.0,93,0.00,,,0.00,Wunderground v.1.15,2013-03-16 09:00:00,
2013-03-16 05:07:00,39.9,38.0,29.67,ENE,58,3.0,4.0,93,0.00,,,0.00,Wunderground v.1.15,2013-03-16 09:07:00,
2013-03-16 05:13:00,40.0,38.1,29.67,NE,49,4.0,6.0,93,0.00,,,0.00,Wunderground v.1.15,2013-03-16 09:13:00,
2013-03-16 05:19:00,40.0,38.1,29.67,NE,47,4.0,6.0,93,0.00,,,0.00,Wunderground v.1.15,2013-03-16 09:19:00,
2013-03-16 05:24:00,40.0,38.1,29.67,NE,51,4.0,7.0,93,0.00,,,0.00,Wunderground v.1.15,2013-03-16 09:24:00,
2013-03-16 05:29:00,40.0,38.1,29.66,ENE,70,5.0,7.0,93,0.00,,,0.00,Wunderground v.1.15,2013-03-16 09:29:00,
2013-03-16 05:35:00,40.0,38.1,29.66,NE,46,5.0,10.0,93,0.00,,,0.00,Wunderground v.1.15,2013-03-16 09:35:00,
2013-03-16 05:40:00,40.0,38.1,29.66,NE,49,5.0,10.0,93,0.00,,,0.00,Wunderground v.1.15,2013-03-16 09:40:00,
2013-03-16 05:47:00,39.9,38.0,29.65,NE,53,5.0,10.0,93,0.00,,,0.00,Wunderground v.1.15,2013-03-16 09:47:00,
2013-03-16 05:53:00,40.0,38.1,29.66,East,93,5.0,10.0,93,0.00,,,0.00,Wunderground v.1.15,2013-03-16 09:53:00,
2013-03-16 05:59:00,39.8,37.7,29.66,ENE,77,3.0,10.0,92,0.00,,,0.00,Wunderground v.1.15,2013-03-16 09:59:00,
2013-03-16 06:04:00,39.7,37.8,29.66,ENE,60,3.0,6.0,93,0.00,,,0.00,Wunderground v.1.15,2013-03-16 10:04:00,
2013-03-16 06:10:00,39.5,37.6,29.66,East,87,4.0,4.0,93,0.00,,,0.00,Wunderground v.1.15,2013-03-16 10:10:00,
2013-03-16 06:17:00,39.3,37.4,29.66,ENE,68,1.0,4.0,93,0.00,,,0.00,Wunderground v.1.15,2013-03-16 10:17:00,
2013-03-16 06:23:00,39.3,37.4,29.66,ENE,76,0.0,1.0,93,0.00,,,0.00,Wunderground v.1.15,2013-03-16 10:23:00,
2013-03-16 06:29:00,39.3,37.7,29.66,NE,56,1.0,6.0,94,0.00,,,0.00,Wunderground v.1.15,2013-03-16 10:29:00,
2013-03-16 06:35:00,39.4,37.8,29.66,NE,53,4.0,8.0,94,0.00,,,0.00,Wunderground v.1.15,2013-03-16 10:35:00,
2013-03-16 06:42:00,39.4,37.5,29.66,NW,315,4.0,8.0,93,0.00,,,0.00,Wunderground v.1.15,2013-03-16 10:42:00,
2013-03-16 06:47:00,39.4,37.8,29.67,North,3,3.0,8.0,94,0.00,,,0.00,Wunderground v.1.15,2013-03-16 10:47:00,
2013-03-16 06:53:00,39.5,37.6,29.67,NNE,18,6.0,9.0,93,0.00,,,0.00,Wunderground v.1.15,2013-03-16 10:53:00,
2013-03-16 06:59:00,39.4,37.8,29.67,NNE,21,6.0,9.0,94,0.00,,,0.00,Wunderground v.1.15,2013-03-16 10:59:00,
2013-03-16 07:04:00,39.2,37.6,29.68,North,11,6.0,8.0,94,0.00,,,0.00,Wunderground v.1.15,2013-03-16 11:04:00,
2013-03-16 07:10:00,39.1,37.5,29.69,NNE,20,6.0,6.0,94,0.00,,,0.00,Wunderground v.1.15,2013-03-16 11:10:00,
2013-03-16 07:15:00,38.9,37.3,29.69,NNE,26,5.0,6.0,94,0.00,,,0.00,Wunderground v.1.15,2013-03-16 11:15:00,
2013-03-16 07:21:00,38.9,37.6,29.69,NNE,23,7.0,9.0,95,0.00,,,0.00,Wunderground v.1.15,2013-03-16 11:21:00,
2013-03-16 07:27:00,38.8,37.5,29.70,NNE,19,8.0,11.0,95,0.00,,,0.00,Wunderground v.1.15,2013-03-16 11:27:00,
2013-03-16 07:32:00,38.8,37.5,29.70,NNE,15,8.0,9.0,95,0.00,,,0.00,Wunderground v.1.15,2013-03-16 11:32:00,
2013-03-16 07:38:00,38.7,37.4,29.70,NNE,21,9.0,12.0,95,0.00,,,0.00,Wunderground v.1.15,2013-03-16 11:38:00,
2013-03-16 07:44:00,38.7,37.7,29.70,NNE,21,8.0,10.0,96,0.00,,,0.00,Wunderground v.1.15,2013-03-16 11:44:00,
2013-03-16 07:50:00,38.7,37.7,29.70,NE,49,6.0,8.0,96,0.00,,,0.00,Wunderground v.1.15,2013-03-16 11:50:00,
2013-03-16 07:55:00,38.7,37.7,29.68,West,264,6.0,8.0,96,0.00,,,0.00,Wunderground v.1.15,2013-03-16 11:55:00,
2013-03-16 08:00:00,38.7,37.7,29.69,NNE,33,5.0,5.0,96,0.00,,,0.00,Wunderground v.1.15,2013-03-16 12:00:00,
2013-03-16 08:06:00,38.7,37.7,29.70,NE,51,6.0,7.0,96,0.00,,,0.00,Wunderground v.1.15,2013-03-16 12:06:00,
2013-03-16 08:11:00,38.8,37.8,29.70,ENE,63,6.0,6.0,96,0.00,,,0.00,Wunderground v.1.15,2013-03-16 12:11:00,
2013-03-16 08:17:00,38.8,37.8,29.70,NNE,23,6.0,10.0,96,0.00,,,0.00,Wunderground v.1.15,2013-03-16 12:17:00,
2013-03-16 08:22:00,38.8,37.8,29.70,NNE,20,7.0,8.0,96,0.00,,,0.00,Wunderground v.1.15,2013-03-16 12:22:00,
2013-03-16 08:27:00,38.9,37.9,29.70,NNE,22,6.0,9.0,96,0.00,,,0.00,Wunderground v.1.15,2013-03-16 12:27:00,
2013-03-16 08:33:00,38.9,38.1,29.70,NNE,20,5.0,12.0,97,0.00,,,0.00,Wunderground v.1.15,2013-03-16 12:33:00,
2013-03-16 08:38:00,38.8,38.0,29.71,North,9,6.0,12.0,97,0.00,,,0.00,Wunderground v.1.15,2013-03-16 12:38:00,
2013-03-16 08:43:00,38.8,38.0,29.71,NNW,347,8.0,12.0,97,0.00,,,0.00,Wunderground v.1.15,2013-03-16 12:43:00,
2013-03-16 08:49:00,38.6,37.6,29.72,NNE,26,8.0,12.0,96,0.00,,,0.00,Wunderground v.1.15,2013-03-16 12:49:00,
2013-03-16 08:55:00,38.4,37.4,29.72,NNE,20,8.0,13.0,96,0.00,,,0.00,Wunderground v.1.15,2013-03-16 12:55:00,
2013-03-16 09:00:00,38.1,37.1,29.72,NNE,23,9.0,12.0,96,0.00,,,0.00,Wunderground v.1.15,2013-03-16 13:00:00,
2013-03-16 09:06:00,37.8,36.8,29.72,NNE,23,10.0,13.0,96,0.00,,,0.00,Wunderground v.1.15,2013-03-16 13:06:00,
2013-03-16 09:12:00,37.8,37.0,29.72,NNE,20,9.0,10.0,97,0.00,,,0.00,Wunderground v.1.15,2013-03-16 13:12:00,
2013-03-16 09:18:00,37.7,36.9,29.72,North,11,7.0,10.0,97,0.00,,,0.00,Wunderground v.1.15,2013-03-16 13:18:00,
2013-03-16 09:23:00,37.7,36.9,29.72,NNE,26,6.0,10.0,97,0.00,,,0.00,Wunderground v.1.15,2013-03-16 13:23:00,
2013-03-16 09:28:00,37.7,36.9,29.72,NE,56,6.0,10.0,97,0.00,,,0.00,Wunderground v.1.15,2013-03-16 13:28:00,
2013-03-16 09:34:00,37.7,36.9,29.72,NE,49,6.0,12.0,97,0.00,,,0.00,Wunderground v.1.15,2013-03-16 13:34:00,
2013-03-16 09:39:00,37.7,36.9,29.73,NNE,30,6.0,12.0,97,0.00,,,0.00,Wunderground v.1.15,2013-03-16 13:39:00,
2013-03-16 09:45:00,37.5,36.7,29.73,NNE,23,8.0,12.0,97,0.00,,,0.00,Wunderground v.1.15,2013-03-16 13:45:00,
2013-03-16 09:52:00,37.5,36.7,29.74,NNE,23,8.0,12.0,97,0.00,,,0.00,Wunderground v.1.15,2013-03-16 13:52:00,
2013-03-16 09:58:00,37.3,36.5,29.74,NNE,17,9.0,12.0,97,0.00,,,0.00,Wunderground v.1.15,2013-03-16 13:58:00,
2013-03-16 10:03:00,37.2,36.4,29.74,NNE,25,10.0,10.0,97,0.00,,,0.00,Wunderground v.1.15,2013-03-16 14:03:00,
2013-03-16 10:09:00,37.2,36.4,29.74,North,6,8.0,11.0,97,0.00,,,0.00,Wunderground v.1.15,2013-03-16 14:09:00,
2013-03-16 10:14:00,37.2,36.4,29.74,North,359,8.0,11.0,97,0.00,,,0.00,Wunderground v.1.15,2013-03-16 14:14:00,
2013-03-16 10:20:00,37.3,36.5,29.74,North,359,7.0,10.0,97,0.00,,,0.00,Wunderground v.1.15,2013-03-16 14:20:00,
2013-03-16 10:26:00,37.3,36.5,29.75,North,7,8.0,10.0,97,0.00,,,0.00,Wunderground v.1.15,2013-03-16 14:26:00,
2013-03-16 10:32:00,37.1,36.3,29.75,North,352,7.0,15.0,97,0.00,,,0.00,Wunderground v.1.15,2013-03-16 14:32:00,
2013-03-16 10:38:00,37.3,36.5,29.75,NNW,335,7.0,15.0,97,0.00,,,0.00,Wunderground v.1.15,2013-03-16 14:38:00,
2013-03-16 10:43:00,37.2,36.4,29.76,NNW,336,7.0,15.0,97,0.00,,,0.00,Wunderground v.1.15,2013-03-16 14:43:00,
2013-03-16 10:49:00,37.2,36.4,29.76,NNW,337,8.0,15.0,97,0.00,,,0.00,Wunderground v.1.15,2013-03-16 14:49:00,
2013-03-16 10:55:00,37.2,36.4,29.77,NNW,328,8.0,15.0,97,0.00,,,0.00,Wunderground v.1.15,2013-03-16 14:55:00,
2013-03-16 11:00:00,37.2,36.4,29.78,NNW,334,9.0,9.0,97,0.00,,,0.00,Wunderground v.1.15,2013-03-16 15:00:00,
2013-03-16 11:07:00,37.1,36.3,29.78,NW,304,10.0,13.0,97,0.00,,,0.00,Wunderground v.1.15,2013-03-16 15:07:00,
2013-03-16 11:13:00,37.1,36.3,29.78,NNW,346,10.0,11.0,97,0.00,,,0.00,Wunderground v.1.15,2013-03-16 15:13:00,
2013-03-16 11:19:00,37.1,36.3,29.79,NW,319,9.0,13.0,97,0.00,,,0.00,Wunderground v.1.15,2013-03-16 15:19:00,
2013-03-16 11:24:00,37.1,36.3,29.80,NNW,328,9.0,11.0,97,0.00,,,0.00,Wunderground v.1.15,2013-03-16 15:24:00,
2013-03-16 11:30:00,37.2,36.4,29.80,NNW,328,9.0,9.0,97,0.00,,,0.00,Wunderground v.1.15,2013-03-16 15:30:00,
2013-03-16 11:35:00,37.2,36.4,29.80,NNW,333,10.0,14.0,97,0.00,,,0.00,Wunderground v.1.15,2013-03-16 15:35:00,
2013-03-16 11:42:00,37.1,36.3,29.81,NW,323,10.0,14.0,97,0.00,,,0.00,Wunderground v.1.15,2013-03-16 15:42:00,
2013-03-16 11:48:00,37.2,36.4,29.81,NNW,343,10.0,14.0,97,0.00,,,0.00,Wunderground v.1.15,2013-03-16 15:48:00,
2013-03-16 11:54:00,37.3,36.5,29.81,NNW,347,9.0,14.0,97,0.00,,,0.00,Wunderground v.1.15,2013-03-16 15:54:00,
2013-03-16 12:00:00,37.4,36.6,29.81,NW,317,9.0,9.0,97,0.00,,,0.00,Wunderground v.1.15,2013-03-16 16:00:00,
2013-03-16 12:06:00,37.5,36.7,29.82,NW,314,8.0,12.0,97,0.00,,,0.00,Wunderground v.1.15,2013-03-16 16:06:00,
2013-03-16 12:12:00,37.7,36.9,29.82,NNW,340,9.0,12.0,97,0.00,,,0.00,Wunderground v.1.15,2013-03-16 16:12:00,
2013-03-16 12:18:00,37.7,36.9,29.82,NNW,327,10.0,13.0,97,0.00,,,0.00,Wunderground v.1.15,2013-03-16 16:18:00,
2013-03-16 12:24:00,37.7,36.9,29.83,NNW,336,11.0,16.0,97,0.00,,,0.00,Wunderground v.1.15,2013-03-16 16:24:00,
2013-03-16 12:29:00,37.7,36.9,29.83,NW,311,11.0,16.0,97,0.00,,,0.00,Wunderground v.1.15,2013-03-16 16:29:00,
2013-03-16 12:35:00,37.6,36.8,29.83,NW,317,12.0,16.0,97,0.00,,,0.00,Wunderground v.1.15,2013-03-16 16:35:00,
2013-03-16 12:42:00,37.5,36.5,29.84,NNW,331,12.0,16.0,96,0.00,,,0.00,Wunderground v.1.15,2013-03-16 16:42:00,
2013-03-16 12:48:00,37.5,36.5,29.84,NNW,328,13.0,16.0,96,0.00,,,0.00,Wunderground v.1.15,2013-03-16 16:48:00,
2013-03-16 12:54:00,37.6,36.6,29.84,NW,304,12.0,16.0,96,0.00,,,0.00,Wunderground v.1.15,2013-03-16 16:54:00,
2013-03-16 13:00:00,37.6,36.6,29.85,NW,326,11.0,13.0,96,0.00,,,0.00,Wunderground v.1.15,2013-03-16 17:00:00,
2013-03-16 13:07:00,37.6,36.6,29.86,NW,307,10.0,13.0,96,0.00,,,0.00,Wunderground v.1.15,2013-03-16 17:07:00,
2013-03-16 13:13:00,37.6,36.6,29.86,NNW,340,9.0,10.0,96,0.00,,,0.00,Wunderground v.1.15,2013-03-16 17:13:00,
2013-03-16 13:19:00,37.5,36.2,29.87,NW,324,10.0,17.0,95,0.00,,,0.00,Wunderground v.1.15,2013-03-16 17:19:00,
2013-03-16 13:25:00,37.3,36.0,29.87,NNW,328,12.0,14.0,95,0.00,,,0.00,Wunderground v.1.15,2013-03-16 17:25:00,
2013-03-16 13:31:00,37.3,36.3,29.87,NW,314,11.0,20.0,96,0.00,,,0.00,Wunderground v.1.15,2013-03-16 17:31:00,
2013-03-16 13:37:00,37.2,35.9,29.88,NNW,327,11.0,20.0,95,0.00,,,0.00,Wunderground v.1.15,2013-03-16 17:37:00,
2013-03-16 13:42:00,37.2,35.9,29.88,NW,309,12.0,20.0,95,0.00,,,0.00,Wunderground v.1.15,2013-03-16 17:42:00,
2013-03-16 13:48:00,37.2,35.9,29.88,NNW,342,11.0,20.0,95,0.00,,,0.00,Wunderground v.1.15,2013-03-16 17:48:00,
2013-03-16 13:54:00,37.1,35.8,29.88,NNW,339,10.0,20.0,95,0.00,,,0.00,Wunderground v.1.15,2013-03-16 17:54:00,
2013-03-16 14:00:00,37.1,35.8,29.89,NNW,329,10.0,12.0,95,0.00,,,0.00,Wunderground v.1.15,2013-03-16 18:00:00,
2013-03-16 14:06:00,37.0,35.7,29.89,NNW,329,11.0,13.0,95,0.00,,,0.00,Wunderground v.1.15,2013-03-16 18:06:00,
2013-03-16 14:12:00,37.0,35.7,29.89,North,356,11.0,15.0,95,0.00,,,0.00,Wunderground v.1.15,2013-03-16 18:12:00,
2013-03-16 14:17:00,36.9,35.6,29.90,NNW,332,11.0,15.0,95,0.00,,,0.00,Wunderground v.1.15,2013-03-16 18:17:00,
2013-03-16 14:23:00,36.9,35.6,29.90,NNW,336,12.0,14.0,95,0.00,,,0.00,Wunderground v.1.15,2013-03-16 18:23:00,
2013-03-16 14:28:00,36.8,35.5,29.90,NNW,340,12.0,15.0,95,0.00,,,0.00,Wunderground v.1.15,2013-03-16 18:28:00,
2013-03-16 14:34:00,36.8,35.5,29.91,NW,307,13.0,19.0,95,0.00,,,0.00,Wunderground v.1.15,2013-03-16 18:34:00,
2013-03-16 14:40:00,36.8,35.5,29.91,NNW,328,12.0,12.0,95,0.00,,,0.00,Wunderground v.1.15,2013-03-16 18:40:00,
2013-03-16 14:45:00,36.9,35.6,29.90,NNW,338,11.0,19.0,95,0.00,,,0.00,Wunderground v.1.15,2013-03-16 18:45:00,
2013-03-16 14:50:00,36.9,35.6,29.90,NNW,328,10.0,10.0,95,0.00,,,0.00,Wunderground v.1.15,2013-03-16 18:50:00,
2013-03-16 14:56:00,36.8,35.5,29.91,NNW,328,11.0,19.0,95,0.00,,,0.00,Wunderground v.1.15,2013-03-16 18:56:00,
2013-03-16 15:02:00,36.8,35.5,29.91,NNW,329,11.0,14.0,95,0.00,,,0.00,Wunderground v.1.15,2013-03-16 19:02:00,
2013-03-16 15:08:00,36.8,35.8,29.92,NNW,327,9.0,14.0,96,0.00,,,0.00,Wunderground v.1.15,2013-03-16 19:08:00,
2013-03-16 15:13:00,36.7,35.7,29.92,NW,319,8.0,12.0,96,0.00,,,0.00,Wunderground v.1.15,2013-03-16 19:13:00,
2013-03-16 15:19:00,36.6,35.3,29.92,NNW,342,10.0,18.0,95,0.00,,,0.00,Wunderground v.1.15,2013-03-16 19:19:00,
2013-03-16 15:24:00,36.6,35.3,29.92,NNW,342,12.0,12.0,95,0.00,,,0.00,Wunderground v.1.15,2013-03-16 19:24:00,
2013-03-16 15:30:00,36.5,35.2,29.92,NNW,327,11.0,11.0,95,0.00,,,0.00,Wunderground v.1.15,2013-03-16 19:30:00,
2013-03-16 15:37:00,36.4,34.8,29.92,NW,312,12.0,20.0,94,0.00,,,0.00,Wunderground v.1.15,2013-03-16 19:37:00,
2013-03-16 15:42:00,36.1,34.5,29.93,NNW,334,13.0,20.0,94,0.00,,,0.00,Wunderground v.1.15,2013-03-16 19:42:00,
2013-03-16 15:48:00,35.9,34.6,29.93,NW,321,11.0,20.0,95,0.00,,,0.00,Wunderground v.1.15,2013-03-16 19:48:00,
2013-03-16 15:54:00,35.6,34.3,29.93,NNW,329,9.0,20.0,95,0.00,,,0.00,Wunderground v.1.15,2013-03-16 19:54:00,
2013-03-16 16:00:00,35.5,34.2,29.94,NW,326,9.0,12.0,95,0.00,,,0.00,Wunderground v.1.15,2013-03-16 20:00:00,
2013-03-16 16:06:00,35.5,34.2,29.94,NNW,338,11.0,16.0,95,0.00,,,0.00,Wunderground v.1.15,2013-03-16 20:06:00,
2013-03-16 16:12:00,35.3,34.0,29.94,WNW,302,12.0,15.0,95,0.00,,,0.00,Wunderground v.1.15,2013-03-16 20:12:00,
2013-03-16 16:18:00,35.2,33.9,29.94,NNW,328,12.0,15.0,95,0.00,,,0.00,Wunderground v.1.15,2013-03-16 20:18:00,
2013-03-16 16:24:00,35.1,33.5,29.94,NNW,344,12.0,12.0,94,0.00,,,0.00,Wunderground v.1.15,2013-03-16 20:24:00,
2013-03-16 16:30:00,35.1,33.5,29.94,NNW,327,11.0,11.0,94,0.00,,,0.00,Wunderground v.1.15,2013-03-16 20:30:00,
2013-03-16 16:37:00,35.0,33.4,29.95,North,3,12.0,19.0,94,0.00,,,0.00,Wunderground v.1.15,2013-03-16 20:37:00,
2013-03-16 16:43:00,34.7,33.2,29.95,North,8,13.0,19.0,94,0.00,,,0.00,Wunderground v.1.15,2013-03-16 20:43:00,
2013-03-16 16:49:00,34.5,33.2,29.96,NW,319,12.0,19.0,95,0.00,,,0.00,Wunderground v.1.15,2013-03-16 20:49:00,
2013-03-16 16:54:00,34.5,33.2,29.96,NNE,14,12.0,19.0,95,0.00,,,0.00,Wunderground v.1.15,2013-03-16 20:54:00,
2013-03-16 16:59:00,34.4,33.1,29.96,NNW,332,12.0,19.0,95,0.00,,,0.00,Wunderground v.1.15,2013-03-16 20:59:00,
2013-03-16 17:04:00,34.4,33.1,29.97,NNW,335,12.0,13.0,95,0.00,,,0.00,Wunderground v.1.15,2013-03-16 21:04:00,
2013-03-16 17:10:00,34.3,33.0,29.98,North,3,10.0,11.0,95,0.00,,,0.00,Wunderground v.1.15,2013-03-16 21:10:00,
2013-03-16 17:16:00,34.1,32.8,29.98,NNW,340,11.0,12.0,95,0.00,,,0.00,Wunderground v.1.15,2013-03-16 21:16:00,
2013-03-16 17:22:00,34.1,32.6,29.98,NNW,340,10.0,11.0,94,0.00,,,0.00,Wunderground v.1.15,2013-03-16 21:22:00,
2013-03-16 17:27:00,34.1,32.3,29.98,North,349,10.0,13.0,93,0.00,,,0.00,Wunderground v.1.15,2013-03-16 21:27:00,
2013-03-16 17:33:00,34.3,32.2,29.98,NNW,334,10.0,19.0,92,0.00,,,0.00,Wunderground v.1.15,2013-03-16 21:33:00,
2013-03-16 17:39:00,34.2,31.8,29.99,North,352,10.0,19.0,91,0.00,,,0.00,Wunderground v.1.15,2013-03-16 21:39:00,
2013-03-16 17:44:00,34.2,32.1,29.99,NNW,339,9.0,19.0,92,0.00,,,0.00,Wunderground v.1.15,2013-03-16 21:44:00,
2013-03-16 17:49:00,34.2,31.8,29.99,North,356,10.0,19.0,91,0.00,,,0.00,Wunderground v.1.15,2013-03-16 21:49:00,
2013-03-16 17:55:00,34.2,31.8,30.00,NNW,333,11.0,19.0,91,0.00,,,0.00,Wunderground v.1.15,2013-03-16 21:55:00,
2013-03-16 18:00:00,34.2,31.6,30.00,NNW,335,10.0,10.0,90,0.00,,,0.00,Wunderground v.1.15,2013-03-16 22:00:00,
2013-03-16 18:07:00,34.1,31.5,30.00,NNW,328,9.0,14.0,90,0.00,,,0.00,Wunderground v.1.15,2013-03-16 22:07:00,
2013-03-16 18:13:00,34.1,31.5,30.00,North,4,10.0,13.0,90,0.00,,,0.00,Wunderground v.1.15,2013-03-16 22:13:00,
2013-03-16 18:19:00,34.0,31.4,30.00,NNW,328,10.0,13.0,90,0.00,,,0.00,Wunderground v.1.15,2013-03-16 22:19:00,
2013-03-16 18:24:00,34.0,31.4,30.00,North,1,9.0,12.0,90,0.00,,,0.00,Wunderground v.1.15,2013-03-16 22:24:00,
2013-03-16 18:30:00,34.1,31.5,30.00,North,3,8.0,8.0,90,0.00,,,0.00,Wunderground v.1.15,2013-03-16 22:30:00,
2013-03-16 18:35:00,34.0,31.4,30.00,NNW,335,7.0,17.0,90,0.00,,,0.00,Wunderground v.1.15,2013-03-16 22:35:00,
2013-03-16 18:41:00,33.9,31.0,30.01,NNW,340,9.0,17.0,89,0.00,,,0.00,Wunderground v.1.15,2013-03-16 22:41:00,
2013-03-16 18:47:00,33.7,30.8,30.01,NNW,338,9.0,17.0,89,0.00,,,0.00,Wunderground v.1.15,2013-03-16 22:47:00,
2013-03-16 18:52:00,33.7,30.8,30.01,North,352,8.0,17.0,89,0.00,,,0.00,Wunderground v.1.15,2013-03-16 22:52:00,
2013-03-16 18:58:00,33.5,30.3,30.02,North,9,8.0,17.0,88,0.00,,,0.00,Wunderground v.1.15,2013-03-16 22:58:00,
2013-03-16 19:04:00,33.5,30.3,30.02,NNW,333,8.0,11.0,88,0.00,,,0.00,Wunderground v.1.15,2013-03-16 23:04:00,
2013-03-16 19:10:00,33.3,29.8,30.02,NNW,328,8.0,10.0,87,0.00,,,0.00,Wunderground v.1.15,2013-03-16 23:10:00,
2013-03-16 19:15:00,33.3,29.8,30.03,NNW,333,9.0,11.0,87,0.00,,,0.00,Wunderground v.1.15,2013-03-16 23:15:00,
2013-03-16 19:20:00,33.2,29.8,30.03,NNW,338,9.0,9.0,87,0.00,,,0.00,Wunderground v.1.15,2013-03-16 23:20:00,
2013-03-16 19:26:00,33.2,29.8,30.03,NW,324,7.0,9.0,87,0.00,,,0.00,Wunderground v.1.15,2013-03-16 23:26:00,
2013-03-16 19:32:00,33.1,29.4,30.03,NNW,347,7.0,16.0,86,0.00,,,0.00,Wunderground v.1.15,2013-03-16 23:32:00,
2013-03-16 19:37:00,33.1,29.4,30.03,NNW,327,7.0,16.0,86,0.00,,,0.00,Wunderground v.1.15,2013-03-16 23:37:00,
2013-03-16 19:42:00,33.1,29.4,30.03,NW,326,7.0,16.0,86,0.00,,,0.00,Wunderground v.1.15,2013-03-16 23:42:00,
2013-03-16 19:48:00,33.1,29.4,30.03,North,1,7.0,16.0,86,0.00,,,0.00,Wunderground v.1.15,2013-03-16 23:48:00,
2013-03-16 19:54:00,33.0,29.0,30.03,NNW,347,7.0,16.0,85,0.00,,,0.00,Wunderground v.1.15,2013-03-16 23:54:00,
2013-03-16 19:59:00,32.9,28.9,30.03,NNW,339,8.0,16.0,85,0.00,,,0.00,Wunderground v.1.15,2013-03-16 23:59:00,
2013-03-16 20:04:00,32.9,28.9,30.03,NNW,346,8.0,9.0,85,0.00,,,0.00,Wunderground v.1.15,2013-03-17 00:04:00,
2013-03-16 20:10:00,32.8,28.8,30.03,NNW,342,7.0,8.0,85,0.00,,,0.00,Wunderground v.1.15,2013-03-17 00:10:00,
2013-03-16 20:15:00,32.8,28.8,30.03,North,360,7.0,9.0,85,0.00,,,0.00,Wunderground v.1.15,2013-03-17 00:15:00,
2013-03-16 20:21:00,32.7,28.7,30.03,NNE,13,7.0,8.0,85,0.00,,,0.00,Wunderground v.1.15,2013-03-17 00:21:00,
2013-03-16 20:27:00,32.7,28.7,30.03,NNW,347,7.0,8.0,85,0.00,,,0.00,Wunderground v.1.15,2013-03-17 00:27:00,
2013-03-16 20:33:00,32.7,28.7,30.04,NNW,338,6.0,13.0,85,0.00,,,0.00,Wunderground v.1.15,2013-03-17 00:33:00,
2013-03-16 20:39:00,32.7,28.7,30.04,North,360,5.0,13.0,85,0.00,,,0.00,Wunderground v.1.15,2013-03-17 00:39:00,
2013-03-16 20:45:00,32.6,28.0,30.04,NNW,342,7.0,13.0,83,0.00,,,0.00,Wunderground v.1.15,2013-03-17 00:45:00,
2013-03-16 20:50:00,32.6,28.0,30.04,NW,324,9.0,9.0,83,0.00,,,0.00,Wunderground v.1.15,2013-03-17 00:50:00,
2013-03-16 20:56:00,32.6,28.0,30.04,NNW,347,7.0,13.0,83,0.00,,,0.00,Wunderground v.1.15,2013-03-17 00:56:00,
2013-03-16 21:02:00,32.6,28.0,30.04,NNW,344,7.0,7.0,83,0.00,,,0.00,Wunderground v.1.15,2013-03-17 01:02:00,
2013-03-16 21:07:00,32.6,28.3,30.04,NNE,18,6.0,7.0,84,0.00,,,0.00,Wunderground v.1.15,2013-03-17 01:07:00,
2013-03-16 21:13:00,32.6,28.0,30.04,North,355,6.0,8.0,83,0.00,,,0.00,Wunderground v.1.15,2013-03-17 01:13:00,
2013-03-16 21:19:00,32.6,27.7,30.04,NNW,338,7.0,9.0,82,0.00,,,0.00,Wunderground v.1.15,2013-03-17 01:19:00,
2013-03-16 21:25:00,32.6,28.0,30.05,North,8,7.0,7.0,83,0.00,,,0.00,Wunderground v.1.15,2013-03-17 01:25:00,
2013-03-16 21:31:00,32.6,28.0,30.05,NNE,13,7.0,8.0,83,0.00,,,0.00,Wunderground v.1.15,2013-03-17 01:31:00,
2013-03-16 21:37:00,32.5,28.2,30.06,NNW,334,6.0,11.0,84,0.00,,,0.00,Wunderground v.1.15,2013-03-17 01:37:00,
2013-03-16 21:42:00,32.5,28.2,30.06,North,9,4.0,11.0,84,0.00,,,0.00,Wunderground v.1.15,2013-03-17 01:42:00,
2013-03-16 21:48:00,32.4,28.1,30.07,NW,321,3.0,11.0,84,0.00,,,0.00,Wunderground v.1.15,2013-03-17 01:48:00,
2013-03-16 21:53:00,32.4,28.1,30.07,NW,323,2.0,11.0,84,0.00,,,0.00,Wunderground v.1.15,2013-03-17 01:53:00,
2013-03-16 21:59:00,32.4,28.1,30.07,NNW,330,3.0,11.0,84,0.00,,,0.00,Wunderground v.1.15,2013-03-17 01:59:00,
2013-03-16 22:04:00,32.4,28.1,30.08,North,350,4.0,5.0,84,0.00,,,0.00,Wunderground v.1.15,2013-03-17 02:04:00,
2013-03-16 22:09:00,32.4,28.4,30.08,NW,308,4.0,5.0,85,0.00,,,0.00,Wunderground v.1.15,2013-03-17 02:09:00,
2013-03-16 22:15:00,32.4,28.1,30.09,NNW,336,3.0,4.0,84,0.00,,,0.00,Wunderground v.1.15,2013-03-17 02:15:00,
2013-03-16 22:21:00,32.4,28.1,30.09,NNW,337,3.0,4.0,84,0.00,,,0.00,Wunderground v.1.15,2013-03-17 02:21:00,
2013-03-16 22:27:00,32.4,28.1,30.09,NNW,328,4.0,5.0,84,0.00,,,0.00,Wunderground v.1.15,2013-03-17 02:27:00,
2013-03-16 22:32:00,32.4,28.1,30.09,NW,311,4.0,11.0,84,0.00,,,0.00,Wunderground v.1.15,2013-03-17 02:32:00,
2013-03-16 22:38:00,32.3,28.0,30.10,NNW,327,4.0,11.0,84,0.00,,,0.00,Wunderground v.1.15,2013-03-17 02:38:00,
2013-03-16 22:44:00,32.3,27.7,30.10,NNW,342,5.0,11.0,83,0.00,,,0.00,Wunderground v.1.15,2013-03-17 02:44:00,
2013-03-16 22:50:00,32.3,27.7,30.10,NNW,335,5.0,5.0,83,0.00,,,0.00,Wunderground v.1.15,2013-03-17 02:50:00,
2013-03-16 22:55:00,32.2,27.9,30.10,NW,314,4.0,11.0,84,0.00,,,0.00,Wunderground v.1.15,2013-03-17 02:55:00,
2013-03-16 23:00:00,32.2,27.6,30.11,NNW,328,3.0,3.0,83,0.00,,,0.00,Wunderground v.1.15,2013-03-17 03:00:00,
2013-03-16 23:06:00,32.1,26.9,30.10,North,350,3.0,5.0,81,0.00,,,0.00,Wunderground v.1.15,2013-03-17 03:06:00,
2013-03-16 23:12:00,32.1,27.2,30.10,NW,304,3.0,4.0,82,0.00,,,0.00,Wunderground v.1.15,2013-03-17 03:12:00,
2013-03-16 23:18:00,32.1,27.5,30.11,NNW,337,4.0,11.0,83,0.00,,,0.00,Wunderground v.1.15,2013-03-17 03:18:00,
2013-03-16 23:23:00,31.8,27.5,30.11,NNW,333,7.0,9.0,84,0.00,,,0.00,Wunderground v.1.15,2013-03-17 03:23:00,
2013-03-16 23:29:00,31.5,27.5,30.11,NNW,334,8.0,9.0,85,0.00,,,0.00,Wunderground v.1.15,2013-03-17 03:29:00,
2013-03-16 23:34:00,31.3,27.3,30.11,NW,324,7.0,10.0,85,0.00,,,0.00,Wunderground v.1.15,2013-03-17 03:34:00,
2013-03-16 23:40:00,31.2,27.5,30.11,NNW,334,8.0,8.0,86,0.00,,,0.00,Wunderground v.1.15,2013-03-17 03:40:00,
2013-03-16 23:45:00,31.0,27.3,30.11,NW,316,8.0,9.0,86,0.00,,,0.00,Wunderground v.1.15,2013-03-17 03:45:00,
2013-03-16 23:51:00,30.9,27.5,30.11,NNW,330,8.0,8.0,87,0.00,,,0.00,Wunderground v.1.15,2013-03-17 03:51:00,
2013-03-16 23:56:00,30.9,27.5,30.11,NW,312,7.0,8.0,87,0.00,,,0.00,Wunderground v.1.15,2013-03-17 03:56:00,